User: anonymous   Login
Location: Theydon Bois
(51.6750°N, 0.1050°E)
Time: 23:05:05
(UTC+01:00)
Language:

Cosmos 2341 Rocket - Orbit

View from above orbital plane
View from above orbital plane
View from above satellite
View from above satellite

Ground track
Ground track

The orbit data is extracted from the following two-line orbital elements,

1 24773U 97017B   17288.77267826 -.00000024 +00000-0 -41826-4 0  9991
2 24773 082.9174 284.2313 0023611 330.5352 135.6027 13.73598671027174
Epoch (UTC): 15 October 2017 18:32:39
Eccentricity: 0.0023611
inclination: 82.9174°
perigee height: 969 km
apogee height: 1004 km
right ascension of ascending node: 284.2313°
argument of perigee: 330.5352°
revolutions per day: 13.73598671
mean anomaly at epoch: 135.6027°
orbit number at epoch: 2717

The dashed part of the orbit path shows where the satellite is in the earth's shadow,  

DLR